Hastings, NE

6:54 PM CDT on May 24, 2018 (GMT -0500)
Hastings Municipal

Weather History for KHSI - March, 2014

Change the Weather History Date:

Monday, March 31, 2014

  Actual Average Record
Temperature  
Mean Temperature 47 °F 46 °F  
Max Temperature 64 °F 58 °F 89 °F (1946)
Min Temperature 29 °F 33 °F 10 °F (1987)
Degree Days  
Heating Degree Days 18 19  
Month to date heating degree days 859 777  
Since 1 July heating degree days 5739 5407  
Cooling Degree Days 0 0  
Month to date cooling degree days 0 0  
Year to date cooling degree days 0 0  
Moisture  
Dew Point 26 °F    
Average Humidity 46    
Maximum Humidity 63    
Minimum Humidity 28    
Precipitation  
Precipitation 0.00 in 0.09 in 0.82 in (2007)
Month to date precipitation 0.15 1.79  
Year to date precipitation 0.86 2.69  
Snow  
Snow 0.00 in 0.20 in 1.50 in (1998)
Month to date snowfall 1.2 5.2  
Since 1 July snowfall 19.5 27.6  
Snow Depth 0.00 in    
Sea Level Pressure  
Sea Level Pressure 29.63 in    
Wind  
Wind Speed 24 mph (West)    
Max Wind Speed 39 mph    
Max Gust Speed 48 mph    
Visibility 10 miles    
Events      
T = Trace of Precipitation, MM = Missing Value Source: NWS Daily Summary

Daily Weather History Graph

Daily Weather History Graph

Search for Another Location

Airport or City:

Astronomy

Mar. 31, 2014 Rise Set
Actual Time 7:18 AM CDT 7:57 PM CDT
Civil Twilight 6:51 AM CDT 8:24 PM CDT
Nautical Twilight 6:18 AM CDT 8:57 PM CDT
Astronomical Twilight 5:45 AM CDT 9:31 PM CDT
Moon 7:43 AM CDT (3/31) 9:18 PM CDT (3/31)
Length of Visible Light 13h 33m
Length of Day
12h 38m
New Moon, 1% of the Moon is Illuminated
Mar 31
New Moon
Apr 7
First Quarter
Apr 15
Full
Apr 22
Last Quarter
Apr 29
New

Hourly Weather History & Observations

Time (CDT) Temp. Windchill Dew Point Humidity Pressure Visibility Wind Dir Wind Speed Gust Speed Precip Events Conditions
12:53 AM 64.9 °F - 32.0 °F 29% 29.46 in 10.0 mi South 18.4 mph 33.4 mph N/A   Clear
1:53 AM 64.0 °F - 30.9 °F 29% 29.43 in 10.0 mi South 19.6 mph 32.2 mph N/A   Clear
2:53 AM 62.1 °F - 32.0 °F 32% 29.40 in 10.0 mi South 20.7 mph 28.8 mph N/A   Clear
3:53 AM 60.1 °F - 33.1 °F 36% 29.37 in 10.0 mi South 12.7 mph 28.8 mph N/A   Clear
4:53 AM 60.1 °F - 33.1 °F 36% 29.34 in 10.0 mi South 13.8 mph 24.2 mph N/A   Clear
5:53 AM 60.1 °F - 34.0 °F 38% 29.32 in 10.0 mi South 13.8 mph 25.3 mph N/A   Clear
6:53 AM 60.1 °F - 33.1 °F 36% 29.31 in 10.0 mi SSW 12.7 mph 21.9 mph N/A   Clear
7:53 AM 57.0 °F - 30.9 °F 37% 29.36 in 10.0 mi SW 13.8 mph 24.2 mph N/A   Clear
8:53 AM 57.9 °F - 34.0 °F 41% 29.40 in 10.0 mi WSW 20.7 mph 29.9 mph N/A   Clear
9:53 AM 60.1 °F - 37.0 °F 42% 29.42 in 9.0 mi West 28.8 mph 41.4 mph N/A   Partly Cloudy
10:53 AM 55.9 °F - 36.0 °F 47% 29.50 in 10.0 mi WNW 28.8 mph 39.1 mph N/A   Partly Cloudy
11:53 AM 51.1 °F - 32.0 °F 48% 29.55 in 10.0 mi WNW 35.7 mph 48.3 mph N/A   Scattered Clouds
12:53 PM 48.9 °F - 28.0 °F 44% 29.61 in 10.0 mi WNW 28.8 mph 41.4 mph N/A   Mostly Cloudy
1:53 PM 46.9 °F - 23.0 °F 39% 29.66 in 10.0 mi WNW 34.5 mph 42.6 mph N/A   Scattered Clouds
2:53 PM 46.0 °F 36.4 °F 19.9 °F 35% 29.70 in 10.0 mi WNW 32.2 mph 46.0 mph N/A   Mostly Cloudy
3:53 PM 44.1 °F 34.0 °F 19.9 °F 38% 29.73 in 10.0 mi WNW 29.9 mph 40.3 mph N/A   Mostly Cloudy
4:53 PM 39.9 °F 27.5 °F 18.0 °F 41% 29.79 in 10.0 mi WNW 35.7 mph 44.9 mph N/A   Partly Cloudy
5:53 PM 37.0 °F 23.9 °F 14.0 °F 39% 29.83 in 10.0 mi WNW 33.4 mph 44.9 mph N/A   Clear
6:53 PM 32.0 °F 17.4 °F 14.0 °F 48% 29.89 in 10.0 mi WNW 31.1 mph 42.6 mph N/A   Clear
7:53 PM 30.9 °F 16.7 °F 17.1 °F 57% 29.93 in 10.0 mi NW 27.6 mph 41.4 mph N/A   Clear
8:53 PM 30.9 °F 18.1 °F 18.0 °F 59% 29.97 in 10.0 mi NW 21.9 mph 33.4 mph N/A   Partly Cloudy
9:53 PM 30.9 °F 18.4 °F 19.0 °F 61% 30.01 in 10.0 mi WNW 20.7 mph 27.6 mph N/A   Clear
10:53 PM 30.0 °F 17.9 °F 19.0 °F 64% 30.05 in 10.0 mi NW 18.4 mph - N/A   Clear
11:53 PM 30.0 °F 17.9 °F 19.9 °F 66% 30.04 in 10.0 mi NW 18.4 mph - N/A   Clear